Temp
7 7 7 7 7 7 7 7 7 7 7 7 7 7 7 7 8 7 7 7 7 6 6 6 6 6 6 6 6 6 5 6 6 6 7 7 7 7 6 6 6 6 6 6 5
7 6 6 7 7 7 7 7 7 7 7 7 7 7 7 8 8 7 7 6 6 6 6 6 6 6 6 5 6 6 6 6 6 6 7 7 7 7 5 5 5 5 5 5 4
6 6 6 6 7 7 7 7 7 7 7 7 7 7 7 7 7 6 6 6 6 6 6 6 6 6 5 6 6 6 6 6 7 7 7 6 7 6 5 5 4 4 5 5 4
6 6 6 6 6 7 7 7 6 6 7 7 7 7 7 7 7 6 6 6 6 6 6 6 5 5 6 6 6 6 7 7 7 7 6 7 6 6 5 4 4 3 4 4 4
6 6 6 6 6 6 6 6 6 6 7 7 7 7 7 7 7 7 6 6 6 6 6 5 5 5 6 6 6 6 8 8 7 6 6 6 6 5 5 5 5 4 4 4 4
6 6 6 6 6 6 6 6 6 6 7 7 7 7 7 7 7 7 6 6 5 5 5 5 5 5 6 6 6 6 7 7 7 6 6 6 6 5 5 5 6 5 4 4 3
5 5 5 6 6 6 6 5 5 6 7 7 7 7 7 7 7 6 6 5 5 6 5 5 5 5 5 6 5 6 7 6 6 6 6 6 6 6 6 6 5 5 4 3 3
5 5 5 5 5 6 5 5 5 6 6 7 7 7 7 7 7 6 5 5 5 5 5 5 5 5 5 6 6 6 6 6 6 6 5 5 6 6 6 7 5 5 4 4 4
4 4 5 5 5 5 5 5 5 5 6 6 7 7 7 7 6 6 5 6 6 6 6 5 5 5 6 6 6 6 6 6 6 6 5 5 6 6 6 6 6 6 5 4 5
4 4 4 4 5 5 4 4 4 5 6 6 7 6 6 7 6 5 5 5 5 5 5 5 5 5 6 6 6 6 6 6 6 6 6 6 6 6 6 6 6 7 6 6 5
3 3 3 4 4 4 4 4 4 4 6 6 7 6 6 6 6 5 5 5 5 5 5 5 5 6 6 6 6 6 6 6 6 7 6 7 7 6 7 6 6 6 6 7 6
2 3 3 4 4 4 4 3 3 4 6 6 7 7 6 6 6 5 5 5 5 6 5 6 6 6 6 6 6 6 6 6 7 7 7 7 7 6 6 6 7 7 7 6 6
2 3 3 3 3 3 3 2 3 3 4 7 7 7 6 6 6 6 5 5 6 6 6 6 6 6 6 6 6 6 6 6 6 6 7 7 7 7 7 6 6 6 6 6 7
1 2 2 3 3 2 2 2 2 3 3 7 8 7 7 6 6 6 5 5 5 6 6 6 6 6 6 6 6 6 6 6 7 6 7 7 6 8 7 7 6 6 6 6 6
1 1 2 2 3 2 1 1 2 2 -1 6 6 6 6 7 6 6 6 5 6 6 6 6 6 5 6 6 6 6 6 7 7 6 6 7 7 8 7 6 7 7 6 7 7
1 1 1 2 2 0 0 1 1 1 1 5 6 6 6 6 6 6 6 5 6 6 6 6 6 6 6 6 7 7 7 7 7 7 5 7 7 8 8 8 8 7 7 7 7
0 1 1 2 1 -1 -1 0 0 -0 5 5 6 6 6 6 5 6 6 6 6 6 6 6 6 6 6 6 7 7 6 6 4 3 3 7 7 8 8 8 8 8 7 7 7
-0 0 1 1 -0 -2 -1 -1 -1 2 5 5 5 6 6 6 6 6 6 6 6 6 6 6 6 6 6 6 7 7 7 6 5 1 2 6 6 8 8 8 9 8 7 7 7
-1 -0 0 1 -0 -2 -2 -1 0 3 5 5 5 5 5 6 6 6 6 6 6 6 6 6 6 6 6 6 7 7 7 6 6 3 3 6 7 8 8 8 8 8 7 7 7
-1 -1 0 0 -2 -2 -2 -2 -0 3 3 4 5 5 6 6 6 6 6 6 6 6 6 6 6 6 6 6 6 6 6 6 6 4 4 5 6 7 8 8 8 8 8 7 7
-2 -2 0 -0 -3 -3 -2 -2 -1 3 3 3 4 5 6 6 6 6 6 6 6 6 6 6 6 6 6 6 7 6 6 6 6 6 1 0 6 7 7 7 7 7 7 7 7
-3 -3 -1 -2 -3 -3 -2 -2 -1 3 2 3 4 5 5 6 6 6 6 6 6 6 6 6 6 6 6 7 6 6 6 6 6 5 5 5 6 7 7 7 7 7 6 7 7
-3 -3 -3 -3 -3 -3 -2 -2 -1 2 2 2 3 3 4 5 6 6 6 6 6 7 7 7 6 6 6 6 6 5 6 6 6 6 6 3 6 7 7 7 7 6 6 6 6
-7 -7 -5 -4 -0 -3 -2 -2 -1 2 2 2 3 3 4 5 5 6 6 6 6 6 7 7 7 6 6 6 7 7 7 6 6 6 6 6 7 7 7 6 6 6 6 6 5
-9 -7 -4 -4 -1 -3 -3 -2 -1 -0 1 1 3 3 3 4 5 5 6 6 6 7 6 6 6 6 6 6 6 6 6 6 6 6 6 6 6 6 6 6 6 6 6 5 5
-8 -6 -5 -1 -1 -3 -3 -4 -2 0 -0 2 2 4 3 3 4 5 6 6 6 6 6 6 6 6 6 6 6 6 6 6 6 6 5 6 6 6 6 6 6 6 6 5 5
-7 -6 -6 -4 -2 -4 -1 -2 -1 1 1 1 2 4 4 4 4 4 4 5 6 6 6 6 6 6 6 6 5 5 6 6 6 5 5 5 6 6 6 6 6 5 5 5 5
Height
3155 3155 3156 3156 3155 3154 3153 3152 3149 3148 3145 3143 3141 3139 3136 3132 3129 3127 3126 3127 3126 3126 3125 3126 3125 3126 3126 3126 3128 3127 3127 3128 3128 3127 3127 3127 3126 3124 3122 3122 3122 3122 3121 3121 3120
3151 3152 3152 3152 3151 3151 3149 3148 3146 3144 3143 3140 3138 3136 3133 3130 3128 3127 3126 3125 3125 3124 3125 3125 3125 3125 3127 3127 3127 3125 3125 3125 3127 3127 3127 3126 3126 3123 3122 3121 3119 3120 3119 3120 3119
3147 3147 3148 3148 3148 3146 3145 3143 3142 3141 3139 3138 3135 3134 3131 3129 3127 3126 3125 3125 3124 3123 3123 3124 3125 3126 3126 3127 3127 3125 3124 3125 3125 3126 3125 3125 3124 3122 3120 3118 3119 3120 3120 3120 3120
3141 3142 3143 3143 3143 3142 3141 3140 3138 3137 3136 3135 3133 3131 3129 3128 3129 3125 3125 3125 3123 3123 3123 3123 3125 3126 3126 3126 3125 3124 3122 3122 3123 3123 3124 3124 3123 3121 3119 3120 3119 3120 3121 3120 3121
3134 3136 3137 3138 3138 3137 3136 3135 3134 3134 3133 3131 3130 3129 3127 3126 3125 3124 3124 3124 3123 3123 3123 3125 3126 3126 3125 3125 3124 3122 3120 3120 3121 3123 3124 3124 3123 3119 3119 3119 3120 3120 3124 3120 3121
3128 3130 3131 3132 3132 3133 3132 3131 3130 3130 3129 3128 3127 3126 3124 3124 3122 3122 3123 3124 3123 3123 3124 3125 3126 3125 3125 3124 3124 3122 3121 3120 3121 3122 3123 3124 3123 3121 3120 3120 3119 3122 3123 3123 3124
3120 3123 3124 3126 3127 3127 3127 3127 3126 3126 3126 3125 3124 3123 3122 3122 3121 3122 3123 3123 3123 3123 3124 3124 3125 3126 3126 3125 3125 3123 3122 3122 3122 3122 3123 3123 3123 3121 3121 3120 3119 3121 3122 3123 3125
3112 3115 3118 3120 3120 3121 3122 3122 3122 3121 3122 3122 3121 3120 3119 3119 3120 3121 3122 3123 3123 3124 3125 3124 3124 3124 3125 3125 3125 3124 3123 3122 3123 3121 3122 3123 3122 3120 3121 3120 3118 3121 3123 3124 3126
3106 3109 3110 3113 3115 3116 3117 3117 3117 3116 3117 3117 3118 3117 3117 3117 3117 3118 3121 3122 3123 3123 3124 3123 3123 3123 3125 3124 3124 3124 3122 3122 3122 3121 3121 3122 3123 3121 3121 3121 3121 3123 3124 3126 3127
3101 3103 3102 3106 3109 3110 3112 3112 3111 3112 3113 3114 3114 3116 3114 3114 3115 3117 3119 3121 3122 3122 3123 3122 3121 3122 3122 3122 3123 3123 3122 3123 3123 3126 3124 3122 3123 3122 3122 3122 3122 3124 3124 3126 3128
3095 3096 3098 3099 3102 3105 3107 3108 3110 3109 3108 3110 3110 3110 3111 3113 3114 3116 3117 3119 3120 3121 3121 3122 3122 3121 3121 3122 3123 3123 3123 3123 3121 3120 3121 3121 3122 3121 3123 3123 3123 3123 3124 3126 3129
3090 3092 3093 3094 3096 3099 3102 3102 3102 3104 3103 3104 3104 3105 3106 3109 3112 3113 3116 3118 3119 3120 3121 3122 3121 3122 3121 3121 3121 3122 3122 3121 3118 3116 3115 3114 3117 3121 3120 3122 3123 3123 3124 3126 3128
3084 3086 3088 3089 3091 3095 3097 3096 3099 3101 3099 3098 3098 3099 3102 3106 3109 3110 3113 3115 3117 3118 3120 3121 3121 3120 3120 3120 3120 3121 3120 3119 3118 3116 3113 3113 3114 3116 3118 3119 3121 3121 3123 3124 3126
3077 3080 3083 3085 3088 3090 3092 3093 3097 3099 3096 3093 3092 3094 3095 3100 3105 3107 3109 3114 3115 3117 3118 3119 3118 3117 3118 3118 3119 3117 3118 3115 3113 3115 3114 3114 3113 3110 3110 3113 3115 3116 3117 3119 3121
3069 3074 3077 3079 3083 3086 3089 3091 3095 3098 3097 3087 3086 3088 3091 3097 3101 3103 3107 3109 3112 3115 3117 3117 3116 3114 3116 3115 3116 3115 3115 3113 3113 3113 3113 3112 3111 3108 3108 3109 3108 3109 3111 3115 3118
3061 3065 3070 3074 3078 3081 3084 3088 3092 3097 3088 3083 3083 3084 3087 3092 3097 3101 3104 3108 3111 3113 3114 3115 3116 3115 3115 3115 3114 3113 3113 3112 3112 3111 3112 3108 3109 3106 3106 3105 3105 3107 3109 3111 3113
3053 3058 3062 3068 3073 3075 3080 3085 3091 3085 3080 3080 3079 3082 3085 3087 3092 3097 3100 3103 3106 3109 3110 3112 3113 3114 3115 3114 3113 3112 3113 3113 3113 3112 3111 3108 3107 3104 3104 3103 3103 3104 3106 3107 3110
3044 3049 3054 3061 3066 3070 3076 3081 3078 3071 3074 3074 3077 3081 3082 3085 3089 3094 3096 3099 3103 3104 3106 3109 3112 3111 3112 3113 3113 3112 3112 3113 3114 3116 3110 3108 3106 3102 3102 3100 3099 3099 3101 3105 3107
3033 3039 3044 3053 3058 3064 3069 3068 3061 3067 3069 3072 3074 3077 3079 3082 3087 3090 3093 3095 3098 3100 3103 3105 3107 3108 3108 3110 3112 3111 3110 3111 3109 3109 3110 3107 3104 3102 3100 3100 3099 3099 3099 3102 3105
3019 3028 3037 3048 3051 3056 3058 3049 3053 3062 3064 3067 3069 3071 3073 3078 3082 3085 3088 3090 3093 3097 3099 3100 3104 3105 3107 3108 3109 3109 3110 3109 3108 3109 3109 3103 3102 3101 3099 3098 3099 3099 3099 3100 3102
3008 3016 3027 3037 3043 3046 3037 3038 3047 3059 3061 3063 3065 3067 3071 3073 3077 3080 3084 3088 3090 3093 3095 3097 3100 3103 3104 3106 3106 3107 3106 3106 3107 3106 3105 3107 3101 3100 3099 3098 3099 3099 3100 3100 3101
2995 3003 3015 3025 3032 3029 3026 3035 3042 3052 3055 3059 3061 3063 3067 3070 3072 3077 3079 3083 3086 3089 3091 3094 3095 3096 3098 3102 3103 3102 3102 3102 3103 3103 3101 3100 3098 3099 3099 3098 3098 3098 3099 3100 3101
2980 2992 3004 3014 3015 3013 3022 3028 3036 3044 3049 3054 3057 3060 3062 3066 3069 3072 3075 3080 3083 3085 3086 3089 3090 3092 3095 3097 3098 3096 3096 3098 3098 3098 3097 3097 3095 3096 3096 3096 3095 3095 3096 3097 3098
2972 2984 2993 2997 3004 3008 3014 3020 3027 3036 3043 3046 3050 3056 3059 3062 3064 3067 3071 3075 3078 3081 3083 3084 3084 3085 3088 3090 3094 3094 3094 3094 3094 3094 3092 3090 3090 3092 3092 3092 3092 3091 3092 3093 3094
2958 2967 2972 2978 2984 2995 3006 3013 3020 3026 3033 3041 3045 3048 3055 3059 3061 3064 3066 3069 3073 3076 3079 3080 3080 3083 3085 3087 3088 3089 3090 3090 3089 3090 3088 3088 3086 3087 3087 3087 3087 3087 3087 3089 3089
2946 2956 2965 2973 2982 2991 2997 2999 3009 3020 3027 3030 3037 3046 3052 3054 3058 3062 3064 3065 3068 3071 3074 3076 3077 3079 3081 3083 3085 3086 3087 3087 3086 3085 3084 3084 3083 3083 3083 3083 3083 3083 3082 3084 3085
2938 2949 2959 2967 2973 2982 2976 2990 3001 3016 3020 3028 3034 3042 3045 3052 3057 3059 3061 3062 3065 3066 3069 3072 3073 3076 3076 3078 3079 3080 3080 3082 3081 3081 3080 3078 3079 3079 3078 3078 3079 3079 3079 3080 3080
Wind_Speed
22 21 21 21 20 21 22 23 23 23 23 24 23 23 21 20 17 11 8 6 5 4 5 6 8 5 2 2 3 9 12 12 10 10 5 11 12 15 13 12 11 12 15 14 14
25 24 23 22 21 22 22 23 24 22 22 23 23 23 20 18 13 8 6 5 4 4 5 6 9 7 9 7 7 11 13 10 7 7 11 10 10 12 9 12 13 17 15 11 8
30 28 26 24 23 23 23 23 23 22 21 22 22 21 19 16 10 4 4 4 7 3 4 6 9 9 4 3 3 9 15 11 11 12 13 8 8 9 5 12 11 13 8 6 6
31 29 28 26 24 24 24 24 22 21 20 21 20 19 16 13 7 4 5 6 4 2 4 8 9 3 2 2 9 16 12 13 14 11 8 5 10 6 4 7 2 2 2 8 5
33 31 29 27 25 24 24 24 22 20 20 20 19 18 14 11 10 7 6 5 4 3 4 8 5 1 3 5 8 9 6 1 3 6 2 7 8 3 6 3 6 7 6 14 8
34 32 31 29 26 26 25 24 21 19 19 19 17 17 14 11 9 5 3 4 5 5 10 10 3 3 1 4 9 5 3 5 3 3 3 2 7 3 7 5 0 4 9 9 11
34 33 31 30 28 27 26 24 21 19 19 18 16 16 13 9 7 1 2 7 8 7 12 4 2 3 4 3 7 1 1 5 3 3 7 6 4 2 2 7 11 6 12 14 13
33 32 32 31 29 28 26 24 21 19 18 17 15 14 9 5 2 6 9 11 11 8 9 8 8 6 3 3 4 4 2 2 7 6 7 8 5 6 5 4 6 8 13 15 10
28 30 28 30 29 28 26 24 21 20 18 17 13 12 6 7 10 14 12 11 9 6 1 7 9 6 6 5 2 5 7 3 3 9 8 11 8 7 7 11 9 8 12 12 13
23 24 24 27 29 28 26 24 22 21 19 16 14 12 9 10 11 20 14 11 8 4 2 2 3 4 8 6 2 2 4 2 6 10 17 9 11 10 8 10 8 6 9 9 10
22 19 22 23 27 27 25 23 21 22 20 16 13 8 8 12 17 20 16 12 9 5 3 1 3 7 6 5 5 5 4 12 22 18 18 20 15 12 9 11 12 10 9 11 12
21 19 20 20 24 25 24 22 24 23 21 16 16 14 16 16 20 20 17 15 13 8 5 4 6 4 4 10 11 13 10 18 15 11 18 13 21 14 17 16 11 7 9 10 12
24 21 19 19 22 23 21 25 22 17 21 16 20 17 21 18 20 20 21 18 14 10 7 11 11 10 13 10 16 16 19 21 21 16 9 6 15 20 23 24 18 17 12 9 8
27 23 20 19 20 20 22 22 17 13 12 12 12 15 23 22 20 23 25 20 16 10 6 10 15 15 11 13 14 20 9 14 11 8 5 7 5 15 22 26 25 21 19 15 14
30 26 23 19 17 20 22 18 13 10 4 5 13 15 20 22 11 21 25 24 18 12 6 8 7 10 12 6 8 15 15 9 8 9 7 5 3 4 21 28 26 23 25 22 19
34 29 26 21 19 21 19 16 13 7 8 9 15 17 23 24 14 23 27 22 16 13 10 12 4 3 6 4 8 11 7 4 8 4 2 7 4 5 12 21 23 27 28 26 26
38 34 29 24 20 25 21 19 12 10 9 14 20 17 21 26 21 28 29 25 21 14 17 15 12 12 7 7 9 7 2 3 3 2 5 5 6 14 15 14 20 24 25 29 30
41 39 33 28 27 29 26 24 16 7 17 11 20 18 19 30 24 23 28 24 24 18 13 20 11 12 10 7 11 8 7 6 4 2 3 4 6 6 7 12 12 16 16 22 26
46 44 40 33 33 32 34 34 17 14 26 10 21 22 20 25 25 26 27 23 25 23 17 11 11 10 15 12 8 9 8 7 3 2 1 4 8 12 11 11 9 7 14 22 25
52 47 43 35 36 37 42 43 33 28 16 21 17 25 24 27 24 24 23 22 24 20 15 21 15 14 8 16 15 13 8 6 7 2 3 4 6 10 11 5 4 3 8 13 18
54 51 47 39 41 43 56 45 38 31 18 17 16 24 25 24 32 28 19 19 21 19 22 20 18 16 17 19 20 20 17 12 8 5 4 1 5 8 3 4 3 5 2 3 12
57 55 52 44 43 54 60 47 29 43 31 17 18 17 25 26 25 31 28 22 19 20 19 21 16 19 23 24 23 22 23 16 12 7 8 6 14 12 15 12 11 8 7 5 2
59 53 40 49 56 57 55 53 45 38 43 31 18 15 16 10 30 26 29 25 23 18 14 22 14 16 17 21 24 16 21 22 19 20 15 8 11 12 13 15 14 13 11 11 7
57 38 40 48 59 52 56 50 52 46 40 44 35 16 14 15 15 21 26 28 25 24 19 16 19 19 15 19 21 20 20 18 19 20 18 22 24 17 16 16 17 17 20 15 11
52 44 54 55 68 54 55 52 48 47 48 37 45 36 20 13 15 14 20 19 24 24 22 24 22 21 20 18 18 16 24 19 15 19 15 16 17 15 18 18 17 16 19 18 17
59 47 52 58 63 64 50 57 49 49 40 44 47 41 33 25 13 8 16 18 18 21 23 28 16 21 16 16 17 18 19 18 18 20 19 20 21 18 18 16 16 14 13 20 22
64 44 50 57 55 55 69 62 55 48 48 39 34 41 38 26 15 11 13 14 17 20 26 28 25 21 20 19 21 23 32 30 30 27 28 28 28 26 24 24 19 17 16 17 21
Wind_Direction
277 280 284 288 292 295 299 304 307 312 316 318 322 323 328 330 328 327 318 300 293 295 243 218 235 239 180 131 216 236 258 283 287 320 332 350 353 338 295 246 228 228 233 251 275
274 276 279 283 288 291 295 299 303 309 314 316 321 324 329 332 328 326 317 314 308 277 257 218 224 219 154 158 195 231 255 267 301 309 314 348 344 332 285 255 236 227 240 258 245
271 272 275 277 281 285 289 293 299 306 311 315 319 323 328 333 326 309 295 289 316 293 237 213 217 223 246 242 284 270 270 284 290 302 312 350 351 355 274 269 249 242 250 242 168
268 270 272 274 276 281 285 289 295 302 308 312 316 320 325 329 325 268 276 324 317 260 215 203 192 209 127 9 324 310 287 282 286 297 292 335 353 332 232 256 259 211 187 277 287
266 267 269 270 271 274 277 284 291 297 302 309 313 316 317 317 300 286 306 297 69 80 174 160 132 215 64 26 346 340 356 234 166 220 217 314 348 354 152 195 315 202 89 89 145
263 264 266 267 268 270 274 280 285 292 297 303 309 312 310 306 297 288 315 215 108 104 138 141 29 352 93 31 359 22 14 156 151 259 224 224 343 270 248 250 6 202 164 102 126
257 261 263 264 264 266 270 276 281 286 291 298 304 308 306 289 303 288 240 139 102 97 150 158 294 345 317 21 0 52 12 146 47 324 258 213 313 321 172 157 201 214 145 176 169
253 256 258 260 260 261 265 269 273 276 283 291 299 303 304 274 148 161 157 135 118 109 170 215 245 249 325 284 319 187 35 53 68 5 262 243 220 245 255 105 186 186 146 140 146
255 253 252 257 258 259 261 262 265 268 275 282 289 292 274 228 175 164 149 151 144 107 131 228 242 263 222 238 222 155 88 32 73 338 346 235 165 225 237 190 179 156 147 153 151
254 252 253 254 255 255 257 257 259 263 267 275 277 270 231 213 183 158 152 159 151 146 37 295 272 223 206 189 146 354 174 167 301 280 311 254 217 220 228 206 185 165 165 144 137
254 256 253 252 253 253 252 254 259 264 259 262 250 238 234 221 182 175 167 168 173 168 119 265 225 178 182 220 235 245 261 272 288 301 287 239 212 221 227 218 215 206 182 148 143
252 255 257 250 250 248 247 247 251 260 267 260 249 240 218 209 193 184 182 184 180 167 180 241 261 235 244 261 259 207 269 279 301 321 310 249 235 215 228 238 232 228 224 189 176
244 247 254 254 248 243 236 242 253 267 275 253 245 240 210 214 202 200 192 184 184 185 231 260 269 285 241 251 246 251 271 283 280 314 293 251 253 242 238 233 233 229 244 246 228
239 240 245 249 245 234 231 240 250 262 277 256 229 220 207 208 214 194 197 193 200 201 243 271 278 253 258 251 247 263 294 319 267 291 232 202 257 229 223 219 228 235 236 240 245
233 236 237 239 240 223 232 237 238 240 307 213 195 187 201 208 194 202 192 195 203 208 229 272 347 231 241 228 241 266 300 282 274 289 265 259 271 249 220 221 237 243 243 249 256
230 229 231 230 229 214 216 219 216 204 247 189 184 194 189 198 190 195 190 197 205 219 229 247 281 264 280 263 251 287 292 270 295 303 278 308 283 283 249 254 258 247 252 248 252
228 227 224 223 214 205 200 200 192 214 209 191 190 198 194 183 179 186 193 203 207 213 227 245 255 273 251 268 236 295 292 316 328 356 222 290 281 262 286 270 269 261 257 247 249
225 226 220 214 197 196 192 193 216 230 204 192 197 201 199 186 184 191 195 204 215 220 217 230 248 249 249 248 229 266 263 234 224 212 274 255 252 248 279 297 276 262 249 248 243
221 221 220 208 196 194 192 200 216 189 201 200 200 200 204 197 193 193 199 209 215 217 222 213 232 256 241 241 252 253 254 259 242 233 213 239 266 288 284 266 287 280 249 246 251
217 219 217 207 193 198 201 211 214 193 193 203 206 203 202 196 194 199 203 213 209 216 230 222 236 249 259 249 237 240 252 226 236 172 251 270 280 278 298 200 236 0 270 259 243
212 214 213 203 188 203 210 213 216 194 191 190 192 199 210 200 204 201 210 205 214 222 223 230 232 247 253 248 251 234 226 227 244 247 171 217 263 283 147 143 5 4 25 203 241
209 209 210 197 194 213 215 214 208 204 215 201 198 183 209 216 208 212 218 211 212 223 222 220 234 229 245 257 256 262 239 241 234 240 230 241 257 261 281 279 276 288 304 266 220
204 204 207 198 197 213 218 218 216 213 211 218 205 199 190 213 213 214 219 221 237 223 224 224 215 212 236 250 253 251 235 247 252 253 249 219 249 268 264 274 270 273 294 275 248
195 185 190 199 210 215 218 221 219 221 216 218 219 199 188 193 188 218 225 227 228 241 231 224 209 207 215 245 257 248 243 249 255 246 256 255 272 271 272 276 273 279 276 258 254
186 191 195 195 205 208 218 220 218 220 220 217 221 216 216 218 206 208 201 210 222 228 216 216 225 234 236 244 240 241 233 246 255 243 248 276 267 272 267 260 264 270 251 251 255
188 190 195 206 207 205 213 220 221 221 217 221 223 221 226 235 192 196 219 219 222 228 232 225 207 223 219 234 243 248 249 245 249 254 264 269 273 271 270 266 267 268 249 244 253
194 184 200 199 210 203 214 217 221 223 228 224 228 223 224 223 220 230 235 233 246 242 223 210 218 226 231 242 251 252 254 258 262 262 265 268 274 277 275 268 258 253 239 245 248